sat.trackr.live / text

‹ back to catalog

ARABSAT-6A

NORAD 44186 · 2019-021A

PAYLOAD ACTIVE UNKNOWN

§ Identity

Operator
Country
AB
Launch date
2019-04-11
Launch site
AFETR
Launch vehicle
Mass (kg)
RCS (m²)

Purposes: comms

External: N2YO · Heavens-Above · Gunter

§ Orbital elements

Epoch: 2026-05-25T00:28:00.956064Z

Period
1,436.13 min
Inclination
0.0580°
Eccentricity
0.0001658
Mean motion
1.00269632 rev/d
Perigee alt
35,780.2 km
Apogee alt
35,794.2 km
Semi-major
42,165.3 km
B*
0.0000e+0
RAAN
22.1279°
Arg perigee
334.2876°
Mean anomaly
283.6656°
Rev number
2,592

§ Raw data

ARABSAT-6A1 44186U 19021A   26145.01945551  .00000151  00000+0  00000+0 0  99992 44186   0.0580  22.1279 0001658 334.2876 283.6656  1.00269632 25927

JSON: /api/v1/satellites/44186 · /tle

For live sub-satellite position, see the globe view (requires WebGL).

§ Visibility from observer

Set your observer location to see the next 7 days of passes ≥ 10°. The values pass through the URL so the page stays shareable.

No JS? Fill the form by hand. The geolocation button needs JavaScript.